Weather History for Moose Lake, MN

Change the Weather History Date:

Sunday, October 20, 2013

  Actual Average Record
Temperature  
Mean Temperature 30 °F -  
Max Temperature 33 °F 55 °F 83 °F (1953)
Min Temperature 26 °F 30 °F 9 °F (1952)
Degree Days  
Heating Degree Days 36    
Moisture  
Dew Point 30 °F    
Average Humidity 97    
Maximum Humidity 100    
Minimum Humidity 86    
Precipitation  
Precipitation 0.11 in - - ()
Sea Level Pressure  
Sea Level Pressure 29.71 in    
Wind  
Wind Speed 2 mph (NNW)    
Max Wind Speed 9 mph    
Max Gust Speed 16 mph    
Visibility 6 miles    
Events Rain , Snow    
Averages and records for this station are not official NWS values.
T = Trace of Precipitation, MM = Missing Value Source: NWS Daily Summary

Daily Weather History Graph

Daily Weather History Graph

Search for Another Location

Airport:

Trip Planner

Search our weather history database for the weather conditions in past years. The results will help you decide how hot, cold, wet, or windy it might be!

Date:

Astronomy

Oct. 20, 2013 Rise Set
Actual Time 7:35 AM CDT 6:15 PM CDT
Civil Twilight 7:05 AM CDT 6:45 PM CDT
Nautical Twilight 6:30 AM CDT 7:20 PM CDT
Astronomical Twilight 5:55 AM CDT 7:55 PM CDT
Moon 7:17 PM CDT (10/20) 9:20 AM CDT (10/20)
Length of Visible Light 11h 40m
Length of Day
10h 39m
Full, 97% of the Moon is Illuminated
Oct 20
Full
Oct 26
Last Quarter
Nov 3
New
Nov 9
First Quarter
Nov 17
Full

Hourly Weather History & Observations

Time (CDT) Temp. Windchill Dew Point Humidity Pressure Visibility Wind Dir Wind Speed Gust Speed Precip Events Conditions
12:06 AM 28.4 °F 24.6 °F 26.6 °F 93% 29.74 in 10.0 mi SSW 3.5 mph - N/A   Clear
12:26 AM 28.4 °F - 26.6 °F 93% 29.74 in 10.0 mi Calm Calm - N/A   Clear
12:46 AM 28.4 °F - 26.6 °F 93% 29.74 in 10.0 mi Calm Calm - N/A   Clear
1:06 AM 28.4 °F - 26.6 °F 93% 29.74 in 10.0 mi Calm Calm - N/A   Clear
1:26 AM 28.4 °F - 26.6 °F 93% 29.73 in 10.0 mi Calm Calm - N/A   Clear
1:46 AM 26.6 °F - 26.6 °F 100% 29.73 in 10.0 mi Calm Calm - N/A   Clear
2:06 AM 28.4 °F - 26.6 °F 93% 29.73 in 7.0 mi Calm Calm - N/A   Clear
2:26 AM 26.6 °F - 26.6 °F 100% 29.73 in 10.0 mi Calm Calm - N/A   Clear
2:46 AM 26.6 °F - 23.0 °F 86% 29.73 in 10.0 mi Calm Calm - N/A   Clear
3:06 AM 26.6 °F - 24.8 °F 93% 29.72 in 10.0 mi Calm Calm - N/A   Clear
3:26 AM 26.6 °F - 24.8 °F 93% 29.72 in 10.0 mi Calm Calm - N/A   Clear
3:46 AM 26.6 °F - 24.8 °F 93% 29.72 in 10.0 mi Calm Calm - N/A   Clear
4:06 AM 28.4 °F - 26.6 °F 93% 29.71 in 10.0 mi Calm Calm - N/A   Scattered Clouds
4:26 AM 28.4 °F - 26.6 °F 93% 29.72 in 10.0 mi Calm Calm - N/A   Mostly Cloudy
4:46 AM 28.4 °F - 26.6 °F 93% 29.71 in 10.0 mi Calm Calm - N/A   Overcast
5:06 AM 28.4 °F - 26.6 °F 93% 29.71 in 10.0 mi Calm Calm - N/A   Overcast
5:26 AM 28.4 °F - 26.6 °F 93% 29.71 in 10.0 mi Calm Calm - N/A   Overcast
5:47 AM 28.4 °F - 26.6 °F 93% 29.71 in 10.0 mi Calm Calm - N/A   Overcast
6:06 AM 28.4 °F - 26.6 °F 93% 29.70 in 10.0 mi Calm Calm - N/A   Overcast
6:26 AM 28.4 °F - 26.6 °F 93% 29.70 in 10.0 mi Calm Calm - N/A   Overcast
6:46 AM 28.4 °F - 28.4 °F 100% 29.70 in 10.0 mi Calm Calm - N/A   Overcast
7:06 AM 28.4 °F - 28.4 °F 100% 29.70 in 10.0 mi Calm Calm - N/A   Overcast
7:26 AM 28.4 °F - 28.4 °F 100% 29.70 in 10.0 mi Calm Calm - N/A   Overcast
7:46 AM 30.2 °F - 28.4 °F 93% 29.70 in 10.0 mi Calm Calm - N/A   Overcast
8:06 AM 30.2 °F - 28.4 °F 93% 29.69 in 10.0 mi Calm Calm - N/A   Overcast
8:26 AM 30.2 °F - 30.2 °F 100% 29.69 in 10.0 mi Calm Calm - N/A   Overcast
8:46 AM 32.0 °F - 30.2 °F 93% 29.70 in 10.0 mi Calm Calm - N/A   Overcast
9:06 AM 32.0 °F - 32.0 °F 100% 29.70 in 10.0 mi Calm Calm - N/A   Overcast
9:26 AM 32.0 °F - 32.0 °F 100% 29.70 in 5.0 mi Calm Calm - N/A   Overcast
9:46 AM 32.0 °F - 32.0 °F 100% 29.70 in 1.2 mi Calm Calm - N/A Snow Light Snow
10:06 AM 32.0 °F - 32.0 °F 100% 29.69 in 1.0 mi Calm Calm - N/A Snow Light Snow
10:26 AM 32.0 °F - 32.0 °F 100% 29.69 in 0.8 mi Calm Calm - N/A Snow Light Snow
10:46 AM 32.0 °F - 32.0 °F 100% 29.69 in 1.2 mi Calm Calm - 0.01 in Snow Light Snow
11:06 AM 32.0 °F - 32.0 °F 100% 29.69 in 1.2 mi Calm Calm - N/A   Overcast
11:26 AM 32.0 °F - 32.0 °F 100% 29.69 in 1.0 mi Calm Calm - N/A   Overcast
11:46 AM 32.0 °F - 32.0 °F 100% 29.69 in 1.0 mi Calm Calm - 0.01 in   Overcast
12:06 PM 32.0 °F - 32.0 °F 100% 29.69 in 0.8 mi Calm Calm - N/A Snow Light Snow
12:26 PM 32.0 °F - 32.0 °F 100% 29.69 in 0.8 mi Calm Calm - N/A Snow Light Snow
12:46 PM 32.0 °F - 32.0 °F 100% 29.68 in 0.8 mi Calm Calm - 0.01 in Snow Light Snow
1:06 PM 32.0 °F - 32.0 °F 100% 29.68 in 0.5 mi Calm Calm - N/A Snow Snow
1:26 PM 32.0 °F - 32.0 °F 100% 29.67 in 0.8 mi Calm Calm - N/A Snow Light Snow
1:46 PM 32.0 °F - 32.0 °F 100% 29.67 in 0.5 mi Calm Calm - 0.01 in Snow Snow
2:06 PM 32.0 °F 28.7 °F 32.0 °F 100% 29.67 in 0.8 mi NNE 3.5 mph - N/A Snow Light Snow
2:26 PM 32.0 °F 28.7 °F 32.0 °F 100% 29.67 in 1.2 mi NNE 3.5 mph - N/A Snow Light Snow
2:46 PM 32.0 °F 27.5 °F 32.0 °F 100% 29.67 in 1.2 mi NNE 4.6 mph - 0.01 in Snow Light Snow
3:06 PM 32.0 °F 26.4 °F 32.0 °F 100% 29.67 in 1.5 mi NNE 5.8 mph - N/A Snow Light Snow
3:26 PM 32.0 °F 28.7 °F 32.0 °F 100% 29.67 in 1.5 mi NE 3.5 mph - 0.01 in Snow Light Snow
3:46 PM 32.0 °F 28.7 °F 32.0 °F 100% 29.67 in 1.0 mi NNE 3.5 mph - 0.01 in Snow Light Snow
4:06 PM 32.0 °F 28.7 °F 32.0 °F 100% 29.68 in 0.8 mi NNE 3.5 mph - 0.01 in Snow Light Snow
4:26 PM 32.0 °F 28.7 °F 32.0 °F 100% 29.68 in 1.0 mi North 3.5 mph - 0.02 in Snow Light Snow
4:47 PM 32.0 °F - 32.0 °F 100% 29.69 in 2.0 mi Calm Calm - 0.02 in Snow Light Snow
5:06 PM 32.0 °F 28.7 °F 32.0 °F 100% 29.69 in 2.5 mi NNW 3.5 mph - N/A   Overcast
5:26 PM 32.0 °F 28.7 °F 32.0 °F 100% 29.69 in 4.0 mi NW 3.5 mph - 0.01 in Snow Light Snow
5:46 PM 32.0 °F 27.5 °F 32.0 °F 100% 29.70 in 2.5 mi NW 4.6 mph - 0.01 in Snow Light Snow
6:07 PM 32.0 °F 27.5 °F 32.0 °F 100% 29.71 in 4.0 mi NNW 4.6 mph - 0.01 in Snow Light Snow
6:26 PM 32.0 °F 27.5 °F 32.0 °F 100% 29.71 in 7.0 mi NNW 4.6 mph - 0.01 in   Overcast
6:46 PM 32.0 °F 26.4 °F 32.0 °F 100% 29.72 in 5.0 mi NNW 5.8 mph - 0.01 in Rain Light Rain
7:06 PM 32.0 °F 26.4 °F 32.0 °F 100% 29.73 in 7.0 mi NNW 5.8 mph - N/A Snow Light Snow
7:26 PM 33.8 °F 28.6 °F 32.0 °F 93% 29.74 in 10.0 mi NW 5.8 mph - N/A   Light Drizzle
7:46 PM 32.0 °F 25.6 °F 32.0 °F 100% 29.74 in 10.0 mi NW 6.9 mph - N/A   Light Drizzle
8:07 PM 33.8 °F 27.7 °F 32.0 °F 93% 29.75 in 10.0 mi NW 6.9 mph - N/A   Light Drizzle
8:27 PM 33.8 °F 27.7 °F 32.0 °F 93% 29.75 in 10.0 mi NNW 6.9 mph - 0.01 in   Overcast
8:46 PM 33.8 °F 29.6 °F 32.0 °F 93% 29.75 in 10.0 mi NW 4.6 mph - 0.01 in   Overcast
9:06 PM 32.0 °F 26.4 °F 32.0 °F 100% 29.76 in 10.0 mi WNW 5.8 mph - N/A   Overcast
9:26 PM 32.0 °F 27.5 °F 32.0 °F 100% 29.76 in 10.0 mi WNW 4.6 mph - N/A   Overcast
9:46 PM 33.8 °F 29.6 °F 32.0 °F 93% 29.76 in 5.0 mi West 4.6 mph - N/A   Light Drizzle
10:06 PM 33.8 °F 29.6 °F 32.0 °F 93% 29.77 in 7.0 mi WNW 4.6 mph - N/A Rain Light Rain
10:27 PM 33.8 °F 27.7 °F 32.0 °F 93% 29.77 in 7.0 mi NW 6.9 mph - N/A Rain Light Rain
10:46 PM 33.8 °F 27.0 °F 32.0 °F 93% 29.77 in 10.0 mi NNW 8.1 mph - N/A Rain Light Rain
11:06 PM 33.8 °F 26.4 °F 32.0 °F 93% 29.79 in 7.0 mi NW 9.2 mph 16.1 mph N/A Rain Light Rain
11:26 PM 33.8 °F 27.7 °F 32.0 °F 93% 29.79 in 7.0 mi NW 6.9 mph - N/A Snow Light Snow
11:46 PM 33.8 °F 27.0 °F 32.0 °F 93% 29.80 in 10.0 mi WNW 8.1 mph - N/A   Overcast